Home   Weather   Turin   Past weeks

Flag for Italy Past Weather in Turin, Italy — Yesterday and Last 2 Weeks

Now
30 °F

Clear.


Feels Like: 30 °F
Forecast: 30 / 44 °F
Wind: No wind

Location: Torino / Bric Della Croce

Current Time: Jan 21, 2017 at 7:19:29 am

Latest Report: Jan 21, 2017 at 5:55 am


Visibility: 10 mi

Pressure: 30.36 "Hg

Humidity: 51%

Dew Point: 14 °F

Location of TurinLocation

Past Weather in Turin — Graph

°F

Turin Temperature Yesterday

Maximum temperature yesterday: 37 °F (at 2:55 pm)
Minimum temperature yesterday: 30 °F (at 3:55 am)
Average temperature yesterday: 33 °F

High & Low Weather Summary for the Past Weeks

 TemperatureHumidityPressure
High41 °F (Jan 14, 12:55 pm)100% (Jan 10, 5:55 am)30.39 "Hg (Jan 10, 5:55 am)
Low23 °F (Jan 8, 6:55 am)12% (Jan 16, 2:55 pm)29.45 "Hg (Jan 13, 9:55 am)
Average30 °F49%30.02 "Hg
* Reported Jan 6 5:55 am — Jan 21 5:55 am, Turin, Weather by CustomWeather, © 2017

Note: Actual official high and low records may vary slightly from our data, if they occured in-between our weather recording intervals... More about our weather records

Advertising

Turin Weather History for the Previous 24 Hours

Scroll right to see more
 ConditionsComfort  
Time TempWeatherWind HumidityBarometerVisibility
5:55 am
Sat, Jan 21
30 °FClear.No wind51%30.36 "Hg10 mi
4:55 am30 °FClear.3 mph51%30.36 "Hg10 mi
3:55 am30 °FClear.No wind51%30.36 "Hg10 mi
2:55 am32 °FClear.3 mph51%30.36 "Hg10 mi
1:55 am32 °FClear.2 mph47%30.36 "Hg10 mi
12:55 am32 °FClear.3 mph47%30.36 "Hg10 mi
11:55 pm
Fri, Jan 20
34 °FClear.5 mph44%30.36 "Hg10 mi
10:55 pm34 °FClear.3 mph44%30.36 "Hg10 mi
9:55 pm34 °FClear.No wind41%30.36 "Hg10 mi
8:55 pm34 °FClear.No wind44%30.36 "Hg10 mi
7:55 pm34 °FClear.3 mph44%30.36 "Hg10 mi
6:55 pm34 °FClear.No wind51%30.36 "Hg10 mi
5:55 pm34 °FClear.2 mph51%30.36 "Hg10 mi
4:55 pm36 °FSunny.3 mph48%30.36 "Hg10 mi
3:55 pm37 °FSunny.No wind45%30.36 "Hg10 mi
2:55 pm37 °FSunny.No wind38%30.36 "Hg10 mi
1:55 pm34 °FSunny.No wind48%30.39 "Hg10 mi
12:55 pm34 °FSunny.No wind48%30.39 "Hg10 mi
11:55 am32 °FSunny.No wind51%30.39 "Hg10 mi
10:55 am32 °FSunny.No wind51%30.39 "Hg10 mi
9:55 am32 °FSunny.2 mph51%30.39 "Hg10 mi
8:55 am30 °FSunny.5 mph55%30.36 "Hg10 mi
7:55 am30 °FClear.5 mph55%30.36 "Hg10 mi
Weather by CustomWeather, © 2017

See weather overviewHow to use our weather pages